Lincoln, IL

12:59 PM CST on March 01, 2017 (GMT -0600)
Lincoln

Weather History for KAAA - April, 2013

Change the Weather History Date:

Thursday, April 18, 2013

  Actual Average (KSPI) Record (KSPI)
Temperature  
Mean Temperature 56 °F -  
Max Temperature 71 °F 65 °F 87 °F (2002)
Min Temperature 41 °F 43 °F 27 °F (1983)
Degree Days  
Heating Degree Days 9    
Growing Degree Days 6 (Base 50)    
Moisture  
Dew Point 55 °F    
Average Humidity 89    
Maximum Humidity 97    
Minimum Humidity 71    
Precipitation  
Precipitation 1.73 in - - ()
Sea Level Pressure  
Sea Level Pressure 29.61 in    
Wind  
Wind Speed 8 mph (SSW)    
Max Wind Speed 25 mph    
Max Gust Speed 38 mph    
Visibility 8 miles    
Events Rain , Thunderstorm    
Averages and records for this station are not official NWS values.
T = Trace of Precipitation, MM = Missing Value Source: NWS Daily Summary

Daily Weather History Graph

Daily Weather History Graph

Search for Another Location

Airport or City:

Trip Planner

Search our weather history database for the weather conditions in past years. The results will help you decide how hot, cold, wet, or windy it might be!

Date:

Astronomy

Apr. 18, 2013 Rise Set
Actual Time 6:14 AM CDT 7:39 PM CDT
Civil Twilight 5:46 AM CDT 8:07 PM CDT
Nautical Twilight 5:12 AM CDT 8:41 PM CDT
Astronomical Twilight 4:36 AM CDT 9:18 PM CDT
Moon 12:26 PM CDT (4/18) 1:54 AM CDT (4/18)
Length of Visible Light 14h 21m
Length of Day
13h 24m
First Quarter, 52% of the Moon is Illuminated
Apr 18
First Quarter
Apr 25
Full
May 2
Last Quarter
May 9
New
May 17
First Quarter

Hourly Weather History & Observations

Time (CDT) Temp. Windchill Dew Point Humidity Pressure Visibility Wind Dir Wind Speed Gust Speed Precip Events Conditions
12:15 AM 55.6 °F - 53.8 °F 94% 29.68 in 5.0 mi ENE 6.9 mph - N/A Thunderstorm Clear
12:35 AM 56.3 °F - 54.5 °F 94% 29.67 in 5.0 mi Calm Calm - N/A Thunderstorm Scattered Clouds
12:55 AM 57.6 °F - 55.9 °F 94% 29.67 in 5.0 mi Calm Calm - N/A   Mostly Cloudy
1:15 AM 57.7 °F - 55.9 °F 94% 29.66 in 4.0 mi Calm Calm - N/A   Mostly Cloudy
1:35 AM 58.1 °F - 56.5 °F 94% 29.65 in 4.0 mi Calm Calm - N/A   Scattered Clouds
1:55 AM 59.0 °F - 57.4 °F 94% 29.64 in 4.0 mi Calm Calm - N/A   Mostly Cloudy
2:15 AM 61.5 °F - 59.9 °F 94% 29.63 in 5.0 mi Calm Calm - N/A   Overcast
2:35 AM 63.0 °F - 61.0 °F 93% 29.63 in 7.0 mi South 3.5 mph - N/A   Overcast
2:55 AM 69.4 °F - 64.4 °F 84% 29.61 in 10.0 mi South 19.6 mph 24.2 mph N/A   Mostly Cloudy
3:15 AM 71.1 °F - 64.6 °F 80% 29.60 in 10.0 mi South 19.6 mph 28.8 mph N/A   Mostly Cloudy
3:35 AM 71.2 °F - 64.8 °F 80% 29.60 in 10.0 mi South 18.4 mph 25.3 mph N/A   Overcast
3:55 AM 70.3 °F - 64.4 °F 81% 29.59 in 10.0 mi South 15.0 mph 19.6 mph N/A   Overcast
4:15 AM 69.6 °F - 64.4 °F 83% 29.58 in 10.0 mi South 11.5 mph - N/A   Mostly Cloudy
4:35 AM 68.9 °F - 64.4 °F 86% 29.57 in 10.0 mi South 8.1 mph - N/A   Overcast
4:55 AM 67.6 °F - 64.2 °F 89% 29.57 in 10.0 mi Calm Calm - N/A   Overcast
5:15 AM 67.5 °F - 63.9 °F 88% 29.55 in 10.0 mi SSE 5.8 mph - N/A   Mostly Cloudy
5:35 AM 69.4 °F - 65.3 °F 87% 29.53 in 10.0 mi South 16.1 mph 21.9 mph N/A   Overcast
5:55 AM 68.2 °F - 64.0 °F 87% 29.57 in 2.0 mi WSW 5.8 mph 28.8 mph 0.21 in Rain Heavy Rain
6:15 AM 63.3 °F - 59.9 °F 89% 29.59 in 4.0 mi WSW 5.8 mph 17.3 mph 0.11 in Rain , Thunderstorm Heavy Thunderstorms and Rain
6:35 AM 61.0 °F - 58.8 °F 93% 29.58 in 4.0 mi West 6.9 mph - 0.22 in Rain , Thunderstorm Heavy Thunderstorms and Rain
6:55 AM 59.4 °F - 57.6 °F 94% 29.62 in 4.0 mi WSW 3.5 mph - 0.31 in Rain , Thunderstorm Heavy Thunderstorms and Rain
7:15 AM 59.0 °F - 57.4 °F 94% 29.59 in 5.0 mi Calm Calm - 0.05 in Rain , Thunderstorm Rain
7:35 AM 59.0 °F - 57.4 °F 94% 29.64 in 7.0 mi South 8.1 mph - 0.07 in Rain Rain
7:55 AM 59.2 °F - 58.1 °F 96% 29.62 in 5.0 mi SSW 3.5 mph - 0.11 in Rain , Thunderstorm Thunderstorms and Rain
8:15 AM 59.7 °F - 58.5 °F 96% 29.63 in 3.0 mi South 5.8 mph - 0.06 in Rain , Thunderstorm Heavy Thunderstorms and Rain
8:35 AM 60.4 °F - 59.4 °F 96% 29.64 in 5.0 mi SSW 4.6 mph - 0.11 in Rain , Thunderstorm Thunderstorms and Rain
8:55 AM 61.7 °F - 60.6 °F 96% 29.61 in 5.0 mi SSW 4.6 mph 9.2 mph 0.17 in Rain Rain
9:15 AM 61.7 °F - 60.8 °F 97% 29.61 in 7.0 mi SSW 5.8 mph - N/A Rain Light Rain
9:35 AM 62.1 °F - 61.2 °F 97% 29.64 in 7.0 mi South 11.5 mph - 0.03 in Rain Rain
9:55 AM 62.4 °F - 61.3 °F 96% 29.63 in 10.0 mi SSW 6.9 mph - 0.06 in Rain Rain
10:15 AM 62.2 °F - 61.2 °F 96% 29.64 in 7.0 mi South 10.4 mph - 0.03 in Rain Rain
10:35 AM 62.6 °F - 61.3 °F 96% 29.65 in 5.0 mi South 13.8 mph - 0.08 in Rain Heavy Rain
10:55 AM 62.2 °F - 61.2 °F 96% 29.65 in 4.0 mi South 13.8 mph 23.0 mph 0.17 in Rain Heavy Rain
11:15 AM 62.2 °F - 61.2 °F 96% 29.63 in 7.0 mi South 8.1 mph - 0.05 in Rain Rain
11:35 AM 62.1 °F - 61.0 °F 96% 29.63 in 7.0 mi South 9.2 mph - 0.11 in Rain Rain
11:55 AM 61.9 °F - 60.8 °F 96% 29.63 in 7.0 mi South 9.2 mph - 0.17 in Rain Rain
12:15 PM 61.9 °F - 60.8 °F 96% 29.64 in 4.0 mi South 11.5 mph - 0.11 in Rain Heavy Rain
12:35 PM 61.9 °F - 60.8 °F 96% 29.62 in 4.0 mi SSE 10.4 mph - 0.24 in Rain , Thunderstorm Heavy Thunderstorms and Rain
12:55 PM 61.7 °F - 60.8 °F 97% 29.57 in 3.0 mi SE 19.6 mph 28.8 mph 0.34 in Rain Rain
1:15 PM 61.7 °F - 60.6 °F 96% 29.57 in 4.0 mi SE 20.7 mph 33.4 mph 0.05 in Rain Rain
1:35 PM 61.7 °F - 60.3 °F 95% 29.53 in 4.0 mi SE 25.3 mph 38.0 mph 0.08 in Rain Rain
1:55 PM 61.9 °F - 60.8 °F 96% 29.53 in 10.0 mi SSE 20.7 mph 34.5 mph 0.09 in   Mostly Cloudy
2:15 PM 62.2 °F - 60.8 °F 95% 29.54 in 10.0 mi SE 16.1 mph 27.6 mph N/A   Mostly Cloudy
2:35 PM 62.6 °F - 60.8 °F 94% 29.55 in 10.0 mi SSE 17.3 mph 25.3 mph N/A Rain Light Rain
2:55 PM 63.0 °F - 61.2 °F 94% 29.54 in 10.0 mi SSE 16.1 mph 25.3 mph N/A   Drizzle
3:15 PM 62.6 °F - 60.8 °F 94% 29.54 in 10.0 mi South 16.1 mph 27.6 mph N/A Rain Light Rain
3:35 PM 63.0 °F - 61.2 °F 94% 29.50 in 5.0 mi SSE 24.2 mph 32.2 mph 0.05 in Rain Rain
3:55 PM 63.7 °F - 61.7 °F 93% 29.47 in 7.0 mi SSE 20.7 mph 35.7 mph 0.07 in Rain Light Rain
4:15 PM 64.6 °F - 62.1 °F 92% 29.54 in 10.0 mi South 20.7 mph 32.2 mph N/A   Overcast
4:35 PM 58.5 °F - 55.4 °F 90% 29.54 in 5.0 mi SW 8.1 mph 17.3 mph 0.03 in Rain Light Rain
4:55 PM 57.0 °F - 54.0 °F 89% 29.56 in 10.0 mi WSW 10.4 mph 18.4 mph 0.03 in   Light Drizzle
5:15 PM 54.1 °F - 50.2 °F 86% 29.55 in 10.0 mi WSW 12.7 mph 20.7 mph N/A   Overcast
5:35 PM 53.1 °F - 49.3 °F 87% 29.59 in 10.0 mi WSW 13.8 mph 25.3 mph N/A   Overcast
5:55 PM 51.6 °F - 48.2 °F 88% 29.60 in 10.0 mi WSW 8.1 mph 16.1 mph N/A Rain Rain
6:15 PM 50.4 °F - 46.6 °F 87% 29.62 in 10.0 mi WSW 15.0 mph 21.9 mph N/A Rain Light Rain
6:35 PM 49.5 °F - 44.6 °F 83% 29.61 in 10.0 mi West 11.5 mph 21.9 mph N/A   Overcast
6:55 PM 49.1 °F - 44.8 °F 85% 29.62 in 10.0 mi WSW 9.2 mph 19.6 mph N/A   Overcast
7:15 PM 48.4 °F - 43.2 °F 82% 29.65 in 10.0 mi WSW 13.8 mph 23.0 mph N/A   Overcast
7:35 PM 48.0 °F - 42.3 °F 80% 29.66 in 10.0 mi WSW 13.8 mph 23.0 mph N/A   Overcast
7:55 PM 47.5 °F - 41.9 °F 81% 29.66 in 10.0 mi WSW 9.2 mph 23.0 mph N/A   Overcast
8:15 PM 47.3 °F - 41.2 °F 79% 29.65 in 10.0 mi WSW 12.7 mph 21.9 mph N/A   Overcast
8:35 PM 47.3 °F - 40.6 °F 78% 29.66 in 10.0 mi West 12.7 mph 21.9 mph N/A   Overcast
9:55 PM 45.5 °F 40.3 °F 37.8 °F 74% 29.70 in 10.0 mi West 10.4 mph 19.6 mph N/A   Mostly Cloudy
10:15 PM 44.6 °F 39.7 °F 37.4 °F 76% 29.69 in 10.0 mi West 9.2 mph - N/A   Overcast
10:35 PM 44.4 °F 38.2 °F 37.4 °F 76% 29.67 in 10.0 mi West 12.7 mph 20.7 mph N/A   Overcast
10:55 PM 43.2 °F 36.6 °F 36.0 °F 76% 29.66 in 10.0 mi West 12.7 mph 27.6 mph N/A   Mostly Cloudy
11:15 PM 41.9 °F 35.9 °F 35.1 °F 77% 29.66 in 10.0 mi West 10.4 mph 25.3 mph N/A   Mostly Cloudy
11:35 PM 41.4 °F 36.2 °F 33.8 °F 74% 29.66 in 10.0 mi West 8.1 mph 24.2 mph N/A   Scattered Clouds
11:55 PM 41.9 °F 35.9 °F 33.3 °F 71% 29.66 in 10.0 mi West 10.4 mph 20.7 mph N/A   Overcast